Temperature
19 19 18 18 18 18 18 18 18 18 18 18 18 18 18 18 18 18 18 18 18 18 18 18 18 18 18 18 18 18 18 18 18 18 18 18 18 18 17 17 17 17 17
19 18 18 18 18 18 18 18 18 17 17 17 17 17 17 17 17 17 18 18 18 18 18 18 18 18 18 18 18 18 18 18 18 18 18 18 18 18 18 17 17 17 17
19 19 18 18 18 18 18 17 17 17 17 17 17 17 17 17 17 17 17 18 18 18 18 18 18 18 18 18 18 18 18 18 18 18 18 18 18 18 18 18 17 17 17
19 19 18 18 18 18 17 17 17 17 17 17 17 17 17 17 17 18 17 18 18 18 18 18 18 18 18 18 18 18 18 18 18 18 18 18 18 18 18 18 18 18 17
19 19 18 18 18 17 17 17 17 17 17 17 17 17 17 17 17 17 17 17 18 18 18 18 18 18 18 18 18 18 18 18 18 18 18 18 18 18 18 18 18 18 17
19 19 18 18 18 17 17 17 17 17 17 17 17 17 17 17 17 17 18 17 17 17 17 17 17 17 17 17 17 18 18 17 17 18 18 18 18 18 18 18 18 18 18
19 19 18 18 18 18 17 17 17 17 16 16 16 17 17 17 17 17 17 17 17 17 17 17 17 17 17 17 17 17 17 17 17 17 17 17 18 18 18 18 18 18 18
19 19 18 18 18 18 17 17 17 17 16 16 16 15 16 16 17 17 17 17 17 17 17 17 17 17 17 17 17 17 17 17 17 17 17 17 17 17 18 18 18 18 18
18 18 18 18 18 18 17 17 17 17 16 16 15 15 14 14 15 16 16 17 17 17 17 17 17 17 17 17 17 17 17 17 17 17 17 17 17 17 17 18 18 18 18
18 18 18 18 18 18 17 17 17 17 16 16 16 15 14 14 14 14 15 16 16 16 17 17 17 17 17 17 17 17 17 17 17 17 17 17 17 17 17 17 17 18 18
17 17 17 17 17 17 17 17 17 17 16 16 16 15 15 14 14 13 14 15 16 16 16 16 16 17 17 17 17 17 17 17 16 16 16 16 16 17 17 17 17 17 17
17 17 16 17 17 17 17 17 17 17 16 16 16 15 15 14 14 13 13 14 15 16 16 16 16 16 17 17 17 17 17 16 16 16 16 16 16 16 16 17 17 17 17
16 16 16 15 16 16 16 16 16 16 16 16 16 15 15 14 14 14 13 13 14 15 15 16 16 16 16 16 16 16 16 16 16 16 16 16 16 16 16 17 17 17 17
15 15 15 15 15 15 15 15 15 16 16 16 15 15 15 15 14 14 14 13 13 14 14 15 15 16 16 16 16 16 16 16 16 16 16 16 16 16 16 16 16 17 17
13 13 14 14 14 14 14 14 15 15 15 15 15 15 15 15 14 14 14 13 13 13 13 14 15 15 15 15 16 16 15 15 15 15 15 15 15 15 16 16 16 16 16
12 12 12 13 13 13 13 13 14 14 14 14 15 15 15 15 14 14 14 14 13 13 13 14 14 14 14 15 15 15 15 15 15 15 15 15 15 15 15 15 16 16 16
11 11 11 12 12 12 12 12 13 13 13 14 14 14 14 14 14 14 14 14 13 13 13 14 14 14 14 14 14 14 14 14 14 14 14 14 14 14 15 15 15 15 16
10 10 10 11 11 11 11 11 12 12 12 13 13 13 14 14 14 14 14 14 14 13 13 13 13 13 13 13 13 13 13 13 13 13 13 13 14 14 14 14 14 15 15
10 10 10 10 10 10 10 11 11 11 12 12 12 13 13 13 14 14 14 14 14 14 13 13 13 13 13 13 13 13 12 12 12 13 13 13 13 13 13 13 14 14 14
10 10 10 9 9 9 10 10 10 10 11 11 12 12 12 13 13 13 13 13 13 13 13 13 13 13 13 12 12 12 12 12 12 12 12 12 12 12 13 13 13 13 13
10 9 9 9 9 9 9 9 9 10 10 10 11 11 12 12 13 13 13 13 13 13 13 13 13 13 12 12 12 12 12 11 11 11 11 11 11 12 12 12 12 12 12
9 9 9 9 9 9 9 9 9 9 10 10 10 11 11 12 12 12 13 13 13 13 13 13 13 12 12 12 12 12 11 11 10 10 11 11 11 11 11 11 12 12 12
9 9 9 9 9 9 9 9 9 9 9 9 10 10 11 11 12 12 12 12 13 13 13 13 13 12 12 12 12 11 11 11 11 10 11 10 10 11 11 10 11 11 11
9 9 9 9 8 8 9 9 9 9 9 9 9 10 10 11 11 11 12 12 12 12 12 12 13 13 13 12 12 12 11 11 11 10 11 10 10 10 10 10 10 10 10
9 9 8 8 8 8 8 8 8 8 8 9 9 9 10 10 11 11 11 11 12 12 12 12 12 12 12 12 12 11 11 10 10 10 10 10 9 9 9 9 9 9 9
8 8 8 8 8 8 8 8 8 8 8 9 9 9 9 10 10 10 11 11 11 11 11 11 11 11 11 11 11 11 11 11 10 9 10 10 10 9 8 8 8 8 8
Wind_Speed
6 4 3 3 3 4 4 4 4 6 7 7 9 9 9 11 13 14 14 19 19 19 19 21 24 24 23 22 22 22 22 22 23 24 24 25 25 24 24 24 23 22 22
5 4 3 2 2 3 4 4 4 5 5 5 7 7 7 9 10 12 13 14 17 17 19 21 23 24 23 22 22 23 23 23 23 24 25 25 25 25 25 25 25 24 24
6 4 3 1 1 2 2 1 2 2 3 3 5 6 6 6 7 8 10 11 13 15 18 21 23 23 23 23 24 24 24 24 24 24 25 25 25 26 26 26 26 26 25
8 4 3 2 1 0 0 1 1 2 2 3 3 4 5 5 6 7 8 10 11 12 16 22 25 25 25 24 24 24 24 24 24 25 25 25 26 26 26 27 27 27 27
8 4 3 2 2 1 1 1 0 1 2 3 4 5 5 5 6 7 7 8 10 12 14 18 24 25 24 23 23 23 23 24 24 25 25 25 26 26 26 27 27 27 28
7 5 3 3 3 2 1 1 1 1 2 3 4 5 5 6 6 7 8 7 8 11 13 14 15 18 23 23 23 24 23 24 24 24 25 26 26 26 26 27 27 28 28
6 4 4 3 3 2 1 0 0 1 2 2 2 4 5 5 5 5 5 5 6 7 9 11 12 13 14 20 23 24 24 24 24 24 25 26 26 26 26 26 27 28 29
6 5 5 4 4 2 1 1 1 0 1 1 1 2 4 5 4 3 3 3 4 4 6 8 10 11 13 12 14 18 20 21 23 24 23 24 24 25 26 26 26 27 28
6 6 7 6 5 3 2 1 2 2 1 1 0 1 1 2 4 4 3 3 3 4 5 5 7 10 13 12 12 14 17 17 18 20 20 21 21 21 23 24 25 26 27
4 5 6 7 6 4 4 3 3 2 2 2 2 1 3 3 2 4 4 3 4 5 5 5 5 6 9 10 12 14 15 16 16 17 17 17 17 19 20 21 23 24 26
3 4 5 6 6 5 5 4 3 3 3 3 3 2 2 3 4 4 5 4 4 4 4 5 4 4 5 7 8 11 14 13 13 12 12 12 13 14 16 18 20 22 23
2 2 3 4 5 4 5 5 5 5 4 4 4 4 3 3 3 3 4 5 5 5 5 4 4 4 3 4 7 9 9 9 9 8 8 8 8 9 10 12 15 18 20
2 3 2 3 3 4 5 5 5 5 5 5 5 5 5 5 5 4 5 5 4 4 3 3 3 2 2 4 5 9 8 8 8 7 6 5 5 4 5 7 9 12 15
3 4 3 3 4 5 5 5 5 6 5 6 7 6 5 5 5 5 5 4 4 3 3 3 2 1 2 4 6 8 7 9 9 8 7 7 6 4 2 2 3 6 8
4 5 5 5 5 5 6 5 5 6 6 6 7 7 6 5 5 6 6 5 4 4 3 3 1 0 2 4 7 8 8 10 11 11 10 9 8 7 5 4 3 2 0
5 6 6 6 6 7 6 6 6 7 7 7 6 7 6 5 5 5 5 5 6 5 4 3 2 1 3 5 8 9 10 13 12 13 12 11 10 10 10 9 9 8 7
6 6 6 6 7 7 7 6 7 7 7 7 7 7 8 6 5 5 5 5 5 5 6 3 2 3 4 8 7 8 10 9 10 13 13 13 13 13 12 12 13 12 12
7 7 6 7 7 7 7 7 8 8 7 8 8 7 8 6 6 5 5 5 5 6 5 5 3 3 4 9 9 8 7 8 9 13 14 14 14 14 15 15 16 16 16
8 8 7 7 8 7 7 7 8 8 8 8 8 8 8 7 7 5 5 6 5 5 5 5 4 3 4 8 9 8 9 7 9 12 14 14 15 16 16 16 17 17 18
9 9 9 8 8 8 8 8 7 8 7 7 7 8 8 8 8 7 6 6 5 5 5 6 6 6 6 8 9 9 8 5 7 8 9 11 14 16 15 15 16 17 18
11 10 9 9 8 7 7 7 6 8 7 7 7 7 8 9 11 8 6 6 5 5 6 7 8 6 7 10 9 7 10 8 6 4 6 5 6 7 9 12 13 15 16
10 9 9 9 9 8 10 11 8 7 7 7 7 7 7 8 9 10 10 9 8 8 8 8 7 9 9 9 8 11 11 9 5 3 4 5 4 6 5 7 10 13 14
10 9 9 9 9 11 14 13 13 8 7 7 7 7 7 7 8 6 6 6 6 9 10 9 10 10 11 12 12 11 10 8 6 7 6 5 3 5 4 8 10 11 13
8 8 9 9 9 11 14 14 13 9 7 8 8 8 7 6 7 7 5 4 3 3 6 7 8 9 10 11 11 11 11 8 8 6 4 4 3 3 4 6 9 11 12
8 8 7 9 9 11 14 14 12 6 7 8 7 7 7 7 9 10 7 6 4 2 4 9 11 12 15 15 14 12 11 12 10 5 2 4 4 3 3 3 6 9 11
9 8 8 9 9 10 12 14 12 5 6 6 5 6 8 8 9 10 9 9 8 6 8 10 11 13 13 14 14 11 12 12 10 5 3 4 5 4 3 2 2 4 8
Wind_Direction
211 210 211 213 212 212 215 223 226 233 234 235 236 236 237 237 235 233 238 245 246 249 250 242 232 227 224 223 223 222 222 223 223 220 217 215 213 211 210 210 209 208 207
188 188 190 188 204 208 213 218 228 233 238 237 239 238 236 237 237 233 234 243 248 244 235 232 235 232 229 228 228 228 226 226 225 224 222 219 217 215 213 213 212 211 210
175 168 163 177 220 220 223 239 260 255 255 250 249 248 244 233 234 235 234 234 239 235 230 229 231 234 235 233 232 232 230 228 227 226 225 223 221 219 216 215 214 213 212
161 146 145 165 197 160 357 301 286 298 286 277 267 262 254 247 245 240 235 233 229 230 230 233 233 234 236 238 238 236 234 232 230 227 227 225 224 223 221 218 217 215 214
145 136 138 144 120 85 39 338 333 253 279 288 277 264 256 252 252 254 244 234 228 222 224 232 235 236 237 240 242 242 240 238 234 231 229 227 226 225 223 222 220 217 216
138 130 128 127 110 96 54 11 305 285 261 277 291 290 269 257 250 248 250 245 233 229 227 230 234 238 240 241 242 245 245 244 240 237 234 231 228 226 225 224 222 220 218
144 137 135 126 121 122 136 336 335 334 308 325 343 318 300 278 266 259 256 254 245 239 234 230 230 233 239 241 240 242 245 245 245 243 241 237 233 229 226 225 224 222 220
164 159 156 154 150 136 90 62 81 43 307 11 37 333 333 335 333 303 285 266 265 255 248 243 233 229 232 233 233 238 242 244 246 245 244 242 238 234 230 228 226 224 222
178 173 172 166 169 158 168 200 158 140 246 308 183 190 279 294 312 311 308 297 296 279 265 256 238 234 230 225 223 229 234 239 245 246 245 245 243 239 234 231 228 226 224
198 190 181 177 176 171 179 194 177 180 177 258 296 218 211 216 253 303 311 310 314 297 285 276 255 240 231 218 215 217 222 227 236 240 240 242 244 242 238 234 232 230 227
239 209 188 180 182 182 185 192 199 207 199 212 225 242 250 242 222 231 282 306 315 298 292 276 261 246 227 205 202 211 213 216 220 224 228 236 240 242 243 238 236 234 231
294 269 203 186 187 191 197 205 213 220 223 226 229 224 224 235 234 230 257 283 293 290 290 276 263 247 217 188 194 194 192 187 192 203 211 216 225 233 241 241 241 240 237
318 313 274 221 214 215 214 212 217 227 227 233 235 233 229 231 229 228 249 266 271 283 285 293 276 255 188 149 162 164 164 163 165 167 167 167 180 203 228 238 241 243 241
303 314 308 269 250 242 235 223 222 230 231 234 240 237 237 239 229 224 227 242 274 278 270 269 301 261 144 131 140 139 136 142 139 134 131 127 126 130 152 213 237 245 245
321 331 324 312 292 271 255 241 235 237 235 235 239 241 241 244 237 232 225 216 222 256 268 249 248 74 117 115 127 123 121 123 120 116 113 109 104 98 87 74 67 64 54
323 325 325 318 308 297 280 261 251 246 240 240 237 240 244 246 246 238 231 222 214 220 238 235 220 153 135 123 116 112 112 112 110 110 107 103 98 90 82 76 72 70 72
300 307 307 308 305 299 296 282 265 257 248 248 245 242 245 243 245 244 236 227 220 212 232 233 199 148 134 130 119 109 108 101 102 103 104 101 95 87 80 75 72 71 73
280 281 286 292 294 297 293 287 282 274 255 250 248 245 247 246 245 244 238 235 228 214 212 216 185 163 141 142 133 122 112 104 99 98 99 97 93 88 82 77 74 73 74
268 271 270 273 278 283 286 284 280 273 262 252 247 242 242 237 245 245 241 241 233 224 205 192 181 158 139 145 135 121 111 106 102 100 93 89 88 86 82 80 77 76 77
256 262 260 257 261 268 275 280 286 277 267 262 254 243 238 231 234 238 242 239 229 214 196 181 169 158 152 150 142 135 125 115 110 102 92 89 86 82 81 83 82 81 80
251 250 252 253 255 261 266 270 276 286 276 273 266 252 242 236 229 225 230 228 214 205 190 179 170 160 157 159 152 143 137 123 97 103 102 85 79 74 72 77 82 85 85
246 245 244 247 251 260 267 271 270 274 272 266 266 264 254 242 233 226 225 221 208 199 193 181 175 168 163 154 144 146 142 139 128 140 110 91 78 77 64 72 84 88 89
236 236 240 241 245 251 257 263 265 260 259 260 258 253 258 244 222 215 214 216 216 206 193 179 173 169 164 160 153 152 153 146 131 151 125 98 76 77 59 72 84 90 94
230 230 233 238 243 251 253 256 258 253 252 253 250 242 242 243 222 203 189 182 186 189 187 177 168 163 157 156 155 152 145 122 109 126 122 111 101 83 67 56 70 83 91
230 228 227 231 236 248 252 253 249 244 247 252 251 243 234 233 222 199 179 170 157 146 139 143 140 138 139 141 142 139 139 138 137 139 125 111 124 97 66 46 50 71 83
234 234 235 231 232 240 248 249 239 225 239 249 255 245 235 223 205 193 183 170 162 155 140 130 127 128 134 137 141 149 150 148 144 144 169 124 143 126 88 30 28 55 73
Height
1525 1525 1525 1525 1525 1525 1525 1524 1524 1525 1525 1525 1526 1526 1526 1527 1527 1528 1529 1530 1530 1531 1531 1532 1534 1535 1536 1537 1538 1539 1541 1542 1544 1546 1548 1550 1552 1553 1555 1557 1559 1561 1563
1523 1523 1523 1522 1522 1522 1521 1521 1521 1521 1521 1521 1521 1522 1522 1522 1523 1523 1524 1525 1526 1526 1527 1527 1529 1531 1533 1533 1534 1536 1537 1539 1541 1542 1544 1546 1548 1550 1552 1554 1556 1558 1560
1520 1520 1520 1519 1519 1518 1518 1517 1517 1517 1517 1517 1516 1517 1517 1517 1518 1518 1519 1520 1521 1522 1522 1523 1524 1526 1528 1529 1530 1532 1533 1535 1537 1538 1540 1542 1544 1546 1548 1550 1552 1554 1556
1518 1518 1517 1516 1516 1515 1514 1514 1513 1513 1513 1512 1512 1512 1512 1512 1512 1513 1513 1514 1515 1516 1517 1518 1519 1521 1522 1524 1525 1526 1529 1531 1532 1534 1536 1538 1540 1542 1544 1546 1548 1550 1552
1515 1515 1514 1513 1513 1512 1511 1510 1510 1510 1509 1508 1507 1507 1507 1507 1507 1507 1508 1508 1510 1511 1512 1513 1514 1515 1517 1518 1519 1521 1523 1525 1527 1529 1532 1533 1535 1538 1540 1542 1543 1545 1547
1513 1512 1511 1511 1510 1509 1508 1507 1506 1506 1505 1504 1503 1502 1502 1502 1502 1502 1503 1503 1504 1505 1506 1507 1508 1509 1511 1512 1513 1515 1517 1519 1521 1524 1526 1528 1530 1532 1535 1537 1539 1541 1543
1511 1510 1509 1508 1508 1507 1506 1504 1503 1503 1502 1500 1499 1498 1498 1497 1497 1497 1498 1498 1499 1500 1500 1501 1502 1503 1504 1506 1507 1509 1511 1513 1515 1518 1520 1522 1525 1527 1529 1531 1533 1536 1538
1508 1507 1507 1506 1505 1505 1503 1502 1501 1499 1499 1497 1496 1495 1494 1494 1493 1494 1494 1494 1495 1495 1495 1495 1496 1497 1498 1499 1501 1502 1504 1506 1508 1511 1514 1516 1519 1521 1523 1525 1527 1530 1532
1506 1505 1504 1504 1503 1502 1501 1500 1498 1497 1495 1495 1494 1494 1493 1491 1490 1490 1491 1491 1491 1491 1491 1491 1490 1491 1492 1492 1494 1496 1498 1500 1502 1504 1507 1509 1512 1514 1516 1519 1521 1523 1525
1503 1502 1502 1501 1500 1500 1499 1498 1496 1494 1493 1492 1492 1491 1491 1490 1490 1487 1487 1488 1488 1487 1487 1486 1486 1486 1487 1487 1489 1491 1493 1494 1496 1498 1500 1503 1505 1507 1509 1512 1514 1516 1518
1499 1498 1498 1498 1497 1497 1496 1495 1494 1492 1491 1489 1488 1487 1487 1487 1486 1485 1483 1482 1483 1483 1482 1482 1482 1482 1483 1483 1484 1486 1488 1490 1491 1493 1495 1497 1499 1501 1503 1505 1507 1509 1511
1495 1494 1494 1494 1494 1493 1492 1491 1490 1489 1488 1487 1485 1484 1483 1483 1482 1481 1480 1478 1478 1478 1478 1478 1478 1478 1478 1479 1481 1482 1484 1485 1487 1489 1490 1491 1493 1494 1496 1498 1500 1502 1504
1490 1489 1489 1489 1489 1489 1488 1487 1486 1485 1484 1483 1482 1480 1479 1478 1478 1477 1476 1475 1474 1473 1474 1474 1474 1474 1475 1476 1477 1478 1479 1481 1482 1484 1485 1486 1487 1489 1491 1492 1494 1495 1497
1484 1484 1484 1483 1483 1484 1483 1482 1481 1481 1480 1479 1478 1476 1475 1474 1473 1472 1472 1471 1470 1470 1470 1470 1470 1471 1471 1472 1473 1474 1475 1477 1478 1479 1481 1482 1483 1485 1486 1487 1488 1489 1491
1480 1479 1478 1477 1477 1477 1477 1476 1476 1475 1475 1474 1473 1472 1470 1469 1469 1468 1467 1467 1468 1466 1466 1466 1467 1467 1468 1469 1470 1471 1472 1474 1475 1476 1478 1479 1480 1482 1483 1483 1484 1485 1486
1474 1473 1472 1471 1471 1471 1470 1470 1469 1469 1469 1468 1467 1466 1465 1464 1463 1463 1462 1462 1462 1463 1462 1462 1463 1464 1465 1466 1467 1468 1470 1471 1473 1474 1476 1477 1478 1479 1480 1480 1481 1481 1482
1469 1467 1466 1465 1464 1464 1463 1463 1462 1462 1462 1462 1461 1461 1460 1459 1458 1457 1457 1457 1457 1457 1457 1458 1460 1461 1463 1464 1465 1466 1468 1470 1472 1473 1474 1475 1476 1477 1478 1478 1479 1479 1480
1464 1462 1461 1459 1458 1457 1457 1456 1456 1455 1455 1455 1455 1455 1454 1453 1452 1452 1451 1451 1451 1452 1453 1454 1456 1458 1460 1462 1463 1465 1467 1469 1471 1472 1473 1475 1476 1477 1478 1478 1478 1478 1479
1459 1457 1456 1454 1452 1451 1450 1449 1449 1448 1448 1448 1448 1448 1448 1447 1447 1446 1446 1445 1445 1446 1447 1449 1451 1454 1456 1459 1461 1464 1466 1468 1470 1472 1473 1475 1476 1477 1478 1478 1479 1479 1480
1453 1452 1450 1448 1447 1445 1444 1443 1442 1442 1441 1441 1441 1441 1441 1441 1441 1440 1440 1439 1440 1440 1442 1444 1447 1450 1453 1456 1459 1461 1465 1468 1470 1472 1474 1475 1476 1478 1479 1479 1480 1480 1481
1447 1445 1444 1443 1441 1440 1438 1437 1436 1435 1434 1434 1434 1434 1434 1435 1435 1435 1434 1434 1434 1435 1436 1439 1442 1445 1449 1452 1456 1459 1463 1466 1469 1472 1474 1476 1478 1479 1480 1481 1481 1482 1483
1439 1438 1437 1436 1435 1434 1433 1431 1430 1429 1428 1427 1427 1427 1427 1428 1429 1429 1429 1429 1429 1430 1431 1434 1437 1440 1444 1448 1453 1456 1460 1464 1468 1473 1475 1477 1479 1480 1481 1482 1483 1484 1485
1431 1430 1429 1429 1427 1427 1426 1425 1424 1423 1422 1421 1421 1421 1421 1422 1423 1423 1424 1424 1424 1426 1428 1430 1432 1436 1440 1444 1449 1454 1458 1462 1465 1470 1475 1477 1480 1481 1483 1484 1485 1486 1487
1423 1422 1421 1421 1420 1419 1419 1418 1417 1416 1415 1415 1415 1415 1415 1416 1417 1418 1419 1419 1420 1422 1424 1426 1430 1433 1438 1443 1447 1452 1457 1462 1467 1472 1476 1477 1480 1482 1484 1486 1487 1487 1488
1414 1414 1413 1413 1412 1411 1411 1411 1410 1409 1409 1408 1408 1408 1409 1410 1411 1412 1414 1415 1416 1418 1421 1424 1428 1432 1437 1441 1446 1451 1456 1461 1466 1471 1476 1477 1480 1483 1485 1487 1489 1490 1491
1405 1405 1405 1405 1404 1404 1404 1404 1404 1403 1403 1402 1402 1402 1403 1404 1406 1407 1409 1411 1413 1415 1418 1422 1426 1430 1435 1441 1446 1450 1454 1459 1463 1470 1475 1477 1480 1483 1487 1489 1491 1492 1493